This demonstration page uses our WeatherBlox Daily Observations layout. Learn more.

Left ArrowRight Arrow

Hourly Observations for November 14, 2019

Temp ( °F °C ) Dew Point ( °F °C ) Humidity (%) Winds ( mph kmh ) Pressure ( in mb ) Visibility ( mi km ) Precip ( " mm )
12:53 am 00:53 Cloudy 36 2.2 31 -0.6 82 82 N 7 11 30.22 1023 10 16 0.00 0.00
1:45 am 01:45 Mostly Cloudy 34 1.1 30 -1.1 85 85 NNW 8 13 30.30 1026 10 16 0.00 0.00
1:53 am 01:53 Mostly Cloudy 35 1.7 31 -0.6 85 85 NNW 8 13 30.25 1024 10 16 0.00 0.00
2:53 am 02:53 Cloudy 32 0 29 -1.7 88 88 WNW 7 11 30.28 1026 10 16 0.00 0.00
3:22 am 03:22 Partly Cloudy 30 -1.1 27 -2.8 88 88 WNW 7 11 30.35 1028 10 16 0.00 0.00
3:53 am 03:53 Mostly Cloudy 30 -1.1 27 -2.8 88 88 NW 8 13 30.30 1026 10 16 0.00 0.00
4:53 am 04:53 Mostly Clear 27 -2.8 24 -4.4 89 89 WNW 7 11 30.31 1027 10 16 0.00 0.00
5:53 am 05:53 Clear 29 -1.7 25 -3.9 85 85 NW 8 13 30.34 1028 10 16 0.00 0.00
6:53 am 06:53 Clear 24 -4.4 21 -6.1 88 88 WNW 7 11 30.37 1029 10 16 0.00 0.00
7:53 am 07:53 Sunny 26 -3.3 22 -5.6 84 84 NW 7 11 30.38 1029 10 16 0.00 0.00
8:53 am 08:53 Sunny 33 0.6 28 -2.2 82 82 NW 9 15 30.40 1029 10 16 0.00 0.00
9:53 am 09:53 Sunny 39 3.9 30 -1.1 70 70 NW 8 13 30.39 1029 10 16 0.00 0.00
10:53 am 10:53 Sunny 42 5.6 30 -1.1 62 62 NW 12 19 30.39 1029 10 16 0.00 0.00
11:53 am 11:53 Sunny 46 7.8 29 -1.7 51 51 NW 8 13 30.38 1029 10 16 0.00 0.00
12:53 pm 12:53 Sunny 48 8.9 28 -2.2 46 46 NNW 9 15 30.36 1028 10 16 0.00 0.00
1:53 pm 13:53 Sunny 51 10.6 28 -2.2 41 41 NW 7 11 30.33 1027 10 16 0.00 0.00
2:53 pm 14:53 Sunny 52 11.1 29 -1.7 41 41 W 10 17 30.31 1027 10 16 0.00 0.00
3:53 pm 15:53 Sunny 53 11.7 29 -1.7 40 40 WNW 7 11 30.32 1027 10 16 0.00 0.00
4:53 pm 16:53 Sunny 49 9.4 29 -1.7 46 46 SW 5 7 30.33 1027 10 16 0.00 0.00
5:53 pm 17:53 Clear 42 5.6 28 -2.2 58 58 Calm 30.35 1028 10 16 0.00 0.00
6:53 pm 18:53 Clear 43 6.1 29 -1.7 58 58 SSE 6 9 30.35 1028 10 16 0.00 0.00
7:53 pm 19:53 Clear 40 4.4 28 -2.2 63 63 SSE 7 11 30.35 1028 10 16 0.00 0.00
8:53 pm 20:53 Clear 39 3.9 28 -2.2 65 65 S 6 9 30.35 1028 10 16 0.00 0.00
9:53 pm 21:53 Clear 37 2.8 27 -2.8 67 67 S 8 13 30.34 1028 10 16 0.00 0.00
10:53 pm 22:53 Clear 34 1.1 26 -3.3 73 73 S 6 9 30.34 1027 10 16 0.00 0.00
11:53 pm 23:53 Clear 35 1.7 27 -2.8 72 72 SSW 6 9 30.33 1027 10 16 0.00 0.00

Powered by AerisWeather